EHI
0 0 0 0 0 0 0 0 0 0 0 0 0 0 2 5 5 6 13 24 27 24 24 31 34 29 25 26 27 25 24 25 28 30 29 26 21 16 12 7 3 1 0 0
0 0 0 0 0 0 0 0 0 0 0 0 0 0 1 4 4 4 9 16 20 20 24 30 33 30 26 26 25 23 21 23 25 26 27 25 21 15 11 8 5 2 0 0
0 0 0 0 0 0 0 0 0 0 0 0 0 0 1 3 2 2 3 7 12 16 22 27 30 28 25 24 22 20 19 19 21 21 21 20 17 14 10 9 7 3 1 0
0 0 0 0 0 0 0 0 0 0 0 0 0 0 1 2 2 1 1 3 7 12 17 21 23 23 21 19 18 18 17 17 18 19 18 16 13 11 9 8 6 4 1 0
0 0 0 0 0 0 0 0 0 0 0 0 0 0 1 1 2 2 1 2 4 7 10 13 17 16 14 12 13 15 16 16 16 17 16 14 10 9 8 7 5 3 2 1
0 0 0 0 0 0 0 0 0 0 0 0 0 0 0 0 1 1 0 1 2 3 4 8 10 10 8 7 9 12 14 15 15 14 13 11 8 7 6 4 2 3 2 1
0 0 0 0 0 0 0 0 0 0 0 0 0 0 0 0 0 0 0 1 2 2 2 4 7 7 5 5 7 10 11 13 14 13 12 9 6 5 4 2 1 2 2 1
0 0 0 0 0 0 0 0 0 0 0 0 0 0 0 0 0 0 1 3 4 3 2 3 5 5 4 5 6 8 9 10 11 11 11 9 8 6 3 1 0 1 1 0
0 0 0 0 0 0 0 0 0 0 0 0 0 0 0 1 1 1 2 4 4 4 3 3 4 3 4 4 5 6 7 8 9 9 9 9 9 7 4 1 0 0 0 0
0 0 0 0 0 0 0 0 0 0 0 0 0 0 0 1 2 2 3 5 5 5 4 3 3 3 3 3 3 4 5 7 7 7 7 8 9 7 4 3 2 1 0 1
0 0 0 0 0 0 0 0 0 0 0 0 0 0 0 1 2 2 3 6 7 7 6 5 3 3 3 2 1 2 3 5 5 6 6 8 9 8 5 4 2 1 0 1
0 0 0 0 0 0 0 0 0 0 0 0 0 0 0 0 1 2 5 9 12 13 11 9 7 6 4 2 1 2 2 3 5 6 7 8 8 8 7 5 3 1 1 1
0 0 0 0 0 0 0 0 0 0 0 0 0 0 1 0 1 6 10 15 22 26 23 17 14 11 8 5 4 4 4 5 7 9 8 8 8 10 9 7 4 3 2 2
0 0 0 0 0 0 0 0 0 0 0 0 0 0 1 1 3 10 18 25 33 40 36 28 22 18 14 12 11 10 10 11 11 10 9 9 10 11 11 8 6 5 3 3
0 0 0 0 0 0 0 0 0 0 0 0 0 0 1 2 6 14 23 31 40 45 43 36 29 24 21 19 17 17 16 16 15 13 11 10 10 11 10 9 7 6 4 2
0 0 0 0 0 0 0 0 0 0 0 0 0 1 4 5 9 17 25 32 39 42 42 40 35 29 25 21 20 21 21 20 19 17 14 11 10 9 9 8 8 8 7 5
1 0 0 0 0 0 0 0 0 0 0 0 1 4 9 13 15 19 23 28 34 37 37 38 37 32 25 21 20 22 23 23 22 20 16 13 11 9 8 9 11 11 10 7
1 0 0 0 0 0 0 0 0 0 0 0 2 7 15 21 22 19 18 23 30 33 34 34 33 29 25 23 23 24 24 24 23 20 17 15 13 10 8 10 12 11 8 6
1 0 0 0 0 0 0 0 0 0 0 1 4 11 16 19 17 14 15 21 27 30 30 30 28 26 26 27 28 28 26 23 20 17 15 15 13 11 8 8 8 7 6 4
0 0 0 0 0 0 0 1 0 0 0 2 8 12 12 10 10 10 12 16 20 23 26 27 26 25 28 30 29 26 22 18 14 12 12 12 11 8 6 5 5 5 3 3
0 0 0 0 0 0 0 1 1 1 1 3 7 10 9 8 10 10 8 9 12 15 20 23 24 23 25 26 23 18 14 11 8 7 7 7 6 5 3 3 3 2 1 1
0 0 0 0 0 0 0 0 1 2 1 1 4 6 7 7 8 7 5 6 8 10 12 15 16 15 15 15 13 10 8 5 4 3 3 2 2 1 1 1 1 0 0 0
0 0 0 0 0 0 0 0 1 1 1 1 2 4 4 3 2 2 3 4 4 5 5 5 5 6 5 5 5 5 4 3 1 1 1 0 0 0 0 0 0 0 0 0
0 0 0 0 0 0 0 0 0 0 0 1 1 1 1 0 0 1 1 1 1 1 1 0 0 1 1 1 1 1 1 1 0 0 0 0 0 0 0 0 0 0 0 0
0 0 0 0 0 0 0 0 0 0 1 1 1 0 0 0 0 0 0 0 0 0 0 0 0 0 0 0 0 0 0 0 0 0 0 0 0 0 0 0 0 0 0 0
0 0 0 0 0 0 0 0 0 1 1 1 1 0 0 0 0 0 0 0 0 0 0 0 0 0 0 0 0 0 0 0 0 0 0 0 0 0 0 0 0 0 0 0
Wind_Speed
11 12 13 10 7 7 8 9 9 6 5 8 9 9 4 2 5 6 7 8 9 10 10 10 10 10 11 11 11 11 12 12 10 8 8 7 7 6 5 4 5 5 5 5
10 16 14 8 7 8 10 11 10 5 4 7 10 9 2 3 5 5 6 8 9 9 10 10 11 11 12 12 12 11 12 12 11 8 6 5 6 5 5 4 5 5 5 5
17 7 5 10 12 11 11 11 9 9 9 7 9 7 3 4 5 5 6 7 7 8 9 10 11 11 11 11 12 11 12 12 11 10 7 7 6 5 5 6 5 5 5 5
14 12 8 10 12 12 12 7 8 9 11 7 5 8 1 3 5 6 7 7 7 7 8 9 10 10 11 11 11 12 12 11 11 11 10 11 9 8 7 6 5 6 6 6
10 8 11 14 13 12 10 5 7 9 10 10 5 8 2 3 3 4 6 7 7 7 7 8 9 9 9 10 11 11 12 11 11 11 11 10 8 7 6 6 7 6 6 5
11 6 7 8 8 9 7 7 8 9 10 9 3 7 4 2 1 1 5 7 7 7 7 8 7 8 8 9 10 10 11 11 11 11 11 10 10 9 9 8 8 7 6 6
14 15 14 11 11 10 10 10 9 9 8 4 2 6 4 3 1 1 4 7 7 7 8 8 9 9 8 9 10 10 11 11 11 11 10 11 11 10 10 9 8 7 6 6
11 11 12 13 15 11 12 13 11 8 6 4 2 4 3 3 2 3 5 7 8 8 8 9 9 9 9 10 10 11 11 11 11 10 9 10 10 8 7 8 7 7 5 5
7 5 6 7 10 12 11 12 11 11 10 9 5 3 2 4 6 6 7 8 9 8 9 9 9 10 10 10 10 11 11 11 10 10 9 9 9 8 7 7 7 6 5 5
7 6 7 7 8 10 10 8 7 10 9 9 6 5 2 3 6 8 9 9 9 9 9 10 10 11 10 10 10 10 11 11 11 11 10 8 9 8 7 7 7 6 6 5
10 9 8 9 10 11 10 9 9 9 8 9 8 3 4 1 3 7 9 10 10 10 10 10 10 11 12 11 12 11 11 10 10 10 9 9 9 9 8 7 7 7 7 7
9 8 9 10 5 4 9 11 11 10 9 9 10 4 5 1 3 6 8 10 10 10 10 10 11 12 12 12 12 12 11 11 10 10 9 9 8 8 8 8 8 8 8 8
5 7 9 10 10 9 10 11 12 11 9 10 12 5 7 4 4 6 8 10 10 11 10 11 11 11 12 12 12 12 12 11 11 10 10 9 9 9 8 7 7 8 8 7
4 7 11 12 5 4 9 11 11 13 12 12 13 11 4 4 5 7 9 10 11 12 11 11 11 11 11 11 11 11 11 11 11 10 10 9 9 8 7 7 7 7 7 7
5 9 10 10 7 7 10 11 11 14 15 15 13 12 8 3 4 7 9 10 12 12 12 12 12 11 11 11 11 11 10 10 10 10 9 9 8 8 7 6 6 5 5 5
3 8 9 11 10 11 13 13 14 15 15 16 16 14 6 0 3 6 8 10 11 12 13 13 12 12 12 11 11 11 11 11 10 10 9 8 8 7 7 6 5 5 4 3
5 6 9 12 11 11 15 15 16 16 16 16 16 12 3 3 3 4 6 9 9 10 11 12 11 11 10 10 10 11 10 10 10 10 9 8 7 7 6 6 6 5 4 4
7 8 7 11 10 16 10 4 8 13 15 14 13 7 3 1 2 2 1 5 8 9 9 9 9 9 9 9 9 10 10 10 10 9 8 8 7 7 6 6 6 6 6 6
6 7 8 9 14 14 11 5 6 10 13 7 7 4 1 4 4 3 2 3 4 6 7 7 8 9 9 10 10 11 11 10 9 9 8 8 8 8 8 8 8 7 7 7
5 6 9 10 12 12 5 3 4 7 11 1 2 1 3 6 6 4 6 6 6 6 6 7 8 9 10 10 11 12 11 11 10 9 8 8 8 9 10 9 8 8 8 8
7 8 11 13 13 10 3 3 4 9 3 6 4 2 3 3 2 8 9 8 8 9 9 9 10 10 9 10 11 12 12 11 10 10 10 10 10 10 11 10 8 8 8 9
7 7 8 9 11 8 5 4 5 6 8 6 4 2 2 6 10 10 10 10 10 10 11 11 11 12 11 11 12 13 12 11 11 11 12 11 10 10 10 10 9 9 9 9
6 5 5 6 5 5 5 6 7 7 7 5 3 1 5 9 10 11 11 11 11 12 12 12 13 14 12 11 12 14 12 11 12 12 12 11 11 10 9 9 9 8 6 5
4 4 7 8 7 6 7 7 6 6 5 3 1 4 8 10 12 13 12 11 12 12 12 13 14 15 14 13 13 12 11 10 12 12 11 11 11 10 9 6 6 6 5 4
5 5 7 9 8 7 4 4 5 3 2 2 5 6 9 13 14 14 13 12 11 12 12 12 13 14 14 12 12 11 10 10 12 11 10 10 10 10 9 10 9 8 10 8
5 6 6 6 6 5 5 4 2 0 1 4 8 10 12 14 15 15 14 12 12 13 12 13 14 14 14 13 12 11 10 10 10 9 8 7 7 7 7 9 10 16 13 14
Wind_Direction
202 227 230 234 248 285 288 282 285 303 327 303 300 309 318 194 208 203 199 196 197 200 188 181 185 187 184 183 178 181 182 178 175 172 171 167 171 170 174 174 167 180 185 178
207 230 238 247 251 257 259 267 274 286 325 301 305 300 299 196 210 214 206 202 204 198 188 183 188 192 193 187 183 180 183 180 180 175 170 169 164 170 166 166 164 181 181 183
224 230 226 232 235 243 250 260 283 306 308 253 289 269 178 171 195 202 207 207 203 199 193 189 193 196 193 189 185 183 183 183 179 169 159 155 152 161 164 172 172 179 181 186
235 239 227 235 235 240 248 253 278 290 292 307 317 306 145 171 197 199 200 198 197 192 191 190 191 189 188 187 183 180 177 178 173 169 172 172 176 176 172 172 163 170 179 182
216 222 226 233 238 239 256 277 274 281 282 286 268 290 9 172 222 190 186 190 188 184 186 186 187 185 184 181 177 174 173 172 173 177 177 180 180 172 161 162 158 177 170 180
243 220 240 244 240 238 237 242 247 251 261 267 314 298 323 65 343 154 163 174 179 174 175 174 176 172 169 168 168 168 168 169 172 177 179 185 178 170 162 169 168 182 171 177
232 233 229 235 238 214 220 238 242 237 234 259 87 281 333 40 65 190 167 165 168 169 170 168 169 169 166 165 165 165 167 169 171 176 183 183 178 173 175 179 181 186 176 174
219 224 211 214 226 227 221 238 251 272 280 293 197 279 13 87 139 160 161 158 164 168 169 166 166 168 168 165 164 165 168 169 170 175 179 178 176 178 178 185 184 187 186 173
226 215 169 204 219 229 221 233 255 266 270 278 278 281 175 152 173 172 166 164 169 167 163 162 163 166 164 164 165 167 167 168 171 172 169 172 178 179 173 176 192 185 178 170
246 249 198 181 203 217 252 250 233 250 263 271 268 269 327 176 183 177 178 173 166 166 163 159 163 162 160 161 161 165 167 168 170 172 171 169 174 175 176 183 187 183 182 184
236 244 218 195 215 205 200 219 238 251 265 276 282 296 59 18 189 183 179 174 167 168 164 160 161 161 161 161 160 162 163 165 170 172 172 171 174 176 178 185 189 187 191 192
218 243 247 226 213 271 238 235 229 244 247 250 276 290 97 117 166 177 170 166 164 165 162 158 158 161 163 164 163 162 165 167 168 169 171 174 173 175 182 186 190 193 196 203
189 230 237 219 202 204 228 231 238 248 261 258 262 264 125 141 168 172 169 165 162 163 163 159 158 163 166 167 168 167 169 168 168 168 171 174 176 180 187 189 193 197 201 207
243 244 256 265 275 212 220 226 230 238 246 254 255 273 218 191 189 180 175 169 166 164 165 164 162 165 166 167 168 169 170 168 167 168 171 175 178 179 184 187 193 197 203 207
255 248 249 267 280 269 258 248 237 241 256 268 274 275 281 242 206 186 180 174 170 168 169 169 168 165 167 168 169 170 169 168 167 169 172 173 171 170 175 177 183 191 202 206
257 273 264 258 256 259 260 255 249 247 253 258 267 271 286 241 175 184 184 179 177 173 171 169 169 169 170 171 171 169 169 166 166 168 168 166 165 166 167 168 171 172 171 171
250 258 263 260 258 263 253 249 251 252 251 253 260 271 252 208 193 186 186 185 180 175 170 167 167 169 169 171 169 166 162 160 161 161 160 157 158 160 157 155 149 142 131 114
259 262 262 263 259 251 260 289 281 271 266 263 265 274 284 311 101 100 187 189 173 166 161 159 159 155 155 156 156 153 149 150 151 149 144 140 144 141 135 128 116 108 102 98
244 246 255 258 253 256 257 257 278 276 269 278 277 268 148 119 137 134 94 114 132 139 141 142 147 146 145 146 143 140 138 136 134 130 128 127 129 124 117 108 104 102 104 103
205 229 247 247 257 260 271 44 348 282 258 9 338 265 176 185 222 150 115 106 106 107 117 124 125 124 127 132 134 130 128 125 121 118 115 112 111 111 108 104 103 104 105 103
219 223 237 248 252 258 350 357 274 250 319 24 355 326 227 230 37 102 111 104 105 106 108 110 110 108 108 114 118 115 111 110 111 109 104 101 101 103 103 103 104 107 105 101
261 254 241 248 249 250 41 314 288 331 343 334 335 354 81 101 107 113 111 108 105 103 101 101 99 97 96 102 106 103 100 103 106 104 101 99 100 101 103 104 102 103 109 111
249 275 289 272 283 355 334 309 310 305 299 307 315 81 126 127 124 120 113 107 102 100 98 99 100 96 92 93 99 100 99 102 102 100 99 99 98 96 101 105 108 110 111 108
240 257 261 265 266 291 304 305 303 294 283 271 212 150 142 133 126 120 114 108 106 102 100 101 100 96 91 89 90 94 100 105 105 103 102 102 100 97 90 89 91 88 84 91
279 260 260 264 276 286 298 326 321 319 287 177 152 146 138 129 125 122 115 110 106 102 100 99 98 97 96 94 95 97 101 103 103 103 104 103 98 93 85 70 49 54 53 37
266 265 274 286 315 302 309 323 324 20 111 136 134 128 123 122 121 116 111 109 107 103 102 101 98 98 97 95 94 93 95 100 105 108 109 108 107 106 108 106 89 57 64 65